Temperature
16 17 17 18 18 18 18 18 17 18 17 17 17 16 16 16 16 17 17 17 17 17 17 18 18 18 18 17 17 17 17 17 17 17 17 17 17 17 17 17 17 17 17
16 17 17 17 17 18 17 17 17 17 17 16 16 16 16 16 16 16 17 17 17 17 17 18 18 18 18 17 17 17 17 17 16 16 17 17 16 16 16 16 16 16 16
16 16 16 17 17 17 17 17 17 16 16 16 16 16 16 16 16 16 17 17 17 17 17 17 18 18 18 17 17 17 17 16 16 16 16 16 16 16 16 16 16 16 16
15 16 16 16 17 17 16 16 16 16 16 16 16 16 16 16 16 16 16 17 17 17 17 17 17 17 17 17 17 17 16 16 16 16 16 15 15 15 15 16 16 16 16
15 15 15 16 16 16 16 16 16 16 16 16 16 15 15 15 15 15 16 16 16 16 16 16 16 16 16 16 16 16 16 16 16 16 15 15 15 14 14 15 16 16 16
15 15 16 16 16 16 16 16 16 16 16 16 15 15 15 15 15 15 15 15 15 15 15 15 16 16 16 16 16 15 15 15 16 15 15 15 15 14 14 14 14 15 16
15 15 16 16 16 16 16 16 16 16 15 15 15 15 15 15 14 14 14 14 14 14 14 14 15 15 15 15 15 15 15 15 15 15 15 15 15 14 14 13 13 13 14
15 16 16 16 16 16 16 16 15 15 15 15 14 14 14 14 14 13 13 13 13 13 13 13 13 13 14 14 14 14 14 14 14 14 14 14 14 14 14 13 13 13 13
15 15 16 16 15 15 15 15 15 15 14 14 14 14 13 13 13 13 12 12 12 12 12 12 12 12 12 13 13 13 14 14 14 14 14 14 14 14 14 13 13 12 12
15 15 15 15 15 15 15 14 14 14 14 14 13 13 13 13 12 12 12 11 11 11 11 11 11 11 11 11 12 12 12 13 13 13 13 13 14 14 13 13 13 13 12
15 15 15 15 15 14 14 14 14 13 13 13 13 13 12 12 12 11 11 11 11 10 10 10 10 10 10 11 11 11 11 11 12 12 13 13 13 13 13 13 13 13 12
15 15 15 14 14 14 13 13 13 13 13 13 12 12 12 12 11 11 11 11 10 10 10 10 10 10 10 10 10 10 10 11 11 11 12 12 12 12 13 13 13 13 13
15 15 14 14 14 13 13 13 13 13 12 12 12 12 12 11 11 11 11 11 10 10 10 10 10 9 9 9 9 9 10 10 10 10 11 11 11 12 12 12 13 13 12
14 14 14 13 13 13 13 12 12 12 12 12 12 11 11 11 11 11 11 11 10 10 10 10 9 9 9 9 9 9 9 9 9 10 10 10 11 11 12 12 12 12 12
14 13 13 12 12 12 12 12 11 11 11 11 11 11 11 11 11 11 11 10 10 10 10 10 9 9 9 9 9 9 9 9 9 9 10 10 10 11 11 11 12 12 12
13 12 12 11 11 11 11 10 10 10 10 10 10 10 10 10 10 10 10 10 10 10 10 9 9 9 9 9 9 9 9 9 9 9 9 9 10 10 11 11 11 11 12
12 11 11 10 10 10 9 9 9 9 9 9 9 9 9 9 9 9 9 9 9 9 9 9 9 9 9 9 9 8 8 8 8 8 9 9 9 10 10 10 11 11 11
11 10 10 9 9 9 9 8 8 8 8 7 8 8 8 8 8 8 8 9 9 9 9 9 9 9 9 9 8 8 8 8 8 8 8 9 9 9 9 10 10 11 11
10 9 9 8 8 8 7 7 7 7 7 7 6 6 6 6 7 7 7 7 8 8 8 8 8 8 8 8 8 8 8 8 8 8 8 8 9 9 9 9 10 10 11
9 8 8 8 7 7 7 6 6 6 6 6 5 5 6 6 6 6 6 6 7 7 7 7 8 8 8 8 8 8 8 8 8 8 8 8 8 9 9 9 9 10 11
8 8 7 7 7 6 6 5 5 5 5 5 5 5 5 5 5 5 5 5 6 6 6 7 7 7 8 8 8 8 8 8 8 8 8 8 8 8 8 9 9 10 10
7 7 6 6 6 6 5 5 5 5 5 5 5 5 5 5 5 5 5 5 5 5 5 6 6 7 7 7 8 7 7 7 7 8 8 8 8 8 8 9 9 9 9
7 6 6 6 6 5 5 5 5 5 5 4 4 4 4 4 4 4 5 5 5 5 5 5 6 6 7 7 7 7 7 7 7 8 8 8 8 8 8 8 9 9 9
6 6 5 5 5 5 5 5 5 5 4 4 4 4 4 4 4 4 4 4 4 5 5 5 5 6 6 6 7 7 7 7 7 7 7 7 7 7 8 8 8 8 9
6 5 5 5 5 5 5 5 5 5 4 4 4 4 4 4 4 4 4 4 4 4 5 5 5 5 6 6 6 7 7 7 7 7 7 7 7 7 7 7 8 8 9
5 5 5 5 5 5 5 5 5 4 4 4 4 4 4 4 4 4 4 4 4 4 4 5 5 5 5 6 6 6 7 7 7 7 7 7 7 7 7 7 7 8 8
Wind_Speed
8 8 9 8 8 7 6 6 4 3 2 1 1 0 2 2 2 3 5 7 7 6 5 5 5 5 4 4 4 2 2 1 0 0 2 3 2 2 2 3 3 4 5
8 8 9 9 8 7 7 7 6 6 5 2 1 1 1 1 2 2 3 5 5 5 5 6 6 5 4 4 4 3 2 1 1 1 0 2 3 2 1 2 1 2 3
8 8 8 8 7 8 7 6 6 6 6 5 2 1 1 1 1 2 2 3 4 4 3 5 5 5 5 5 5 4 4 2 1 1 2 2 2 2 3 2 2 2 2
7 6 6 6 6 5 5 5 5 5 5 5 4 4 2 2 2 3 2 3 2 1 2 3 4 5 4 5 5 5 3 4 2 1 2 2 2 1 2 3 3 3 4
4 4 4 4 4 3 4 3 4 5 5 6 5 5 4 2 2 3 4 3 3 3 3 2 2 3 4 5 5 5 5 4 4 3 2 1 1 2 2 4 4 4 4
2 2 2 2 2 3 2 2 4 4 4 5 5 5 4 3 3 4 4 3 3 3 4 3 2 2 2 4 5 5 6 6 5 4 3 3 3 3 4 4 4 5 4
3 3 3 3 3 2 2 1 1 1 1 2 3 3 3 3 2 1 2 2 2 2 4 4 3 2 2 2 3 5 6 6 6 6 5 5 5 3 3 3 4 4 3
5 6 6 6 6 6 4 3 3 2 2 2 2 2 2 2 1 1 1 1 1 2 2 2 3 3 3 2 2 4 5 5 6 7 6 5 6 5 5 4 3 3 3
7 7 8 8 8 8 7 6 6 6 6 5 5 5 4 4 4 4 3 2 3 3 2 2 3 3 3 2 2 3 4 4 6 7 7 6 6 6 6 5 4 4 3
7 8 8 8 7 7 8 7 8 8 8 7 7 6 6 6 6 5 5 5 5 4 4 4 4 3 3 3 2 3 3 4 5 5 6 7 6 6 6 6 6 6 5
8 8 8 7 7 7 8 8 9 9 9 9 8 8 8 7 6 6 8 7 6 6 6 5 5 5 4 4 3 4 4 5 5 5 6 7 7 6 6 6 6 7 6
7 8 8 8 8 8 9 9 10 10 11 10 9 10 9 8 8 9 9 8 8 8 7 7 6 6 6 5 5 5 5 5 6 6 6 7 6 7 6 6 7 7 8
8 7 7 7 8 9 10 10 10 11 12 11 11 11 11 11 11 12 11 9 9 9 8 7 8 8 7 7 7 6 6 6 6 6 6 6 6 7 6 7 7 7 7
8 8 8 9 10 10 10 11 11 11 11 11 11 12 13 13 13 12 11 11 10 10 10 10 9 9 9 8 8 7 7 7 6 6 6 7 7 8 8 8 9 8 8
10 10 10 10 10 11 11 11 11 12 11 11 11 13 13 13 12 12 12 11 11 11 11 10 10 9 8 8 9 8 8 7 7 7 6 7 9 10 9 8 8 8 8
11 11 11 11 11 11 12 12 12 12 11 11 12 13 12 12 12 12 12 11 11 11 10 10 11 10 9 12 14 10 8 8 8 8 7 7 9 9 10 12 13 12 10
12 12 11 12 12 12 12 12 12 11 11 11 13 12 12 12 12 13 11 11 12 11 10 11 11 11 12 15 15 14 9 9 9 9 8 7 7 8 7 9 11 13 15
11 12 11 12 12 12 12 12 12 12 12 12 13 12 12 13 12 12 12 11 10 9 10 11 11 11 13 15 16 15 10 9 9 9 9 9 9 8 8 7 8 9 11
11 11 12 13 12 13 13 12 13 12 13 13 13 13 12 12 12 12 12 11 9 10 9 8 10 11 12 14 15 13 7 8 10 9 9 9 9 10 10 8 8 9 8
10 11 12 13 13 14 13 13 14 14 14 14 14 13 12 12 12 12 11 9 9 10 10 10 10 11 11 13 14 13 6 7 8 7 8 10 10 9 9 9 9 10 8
13 13 13 13 14 14 13 14 15 15 15 14 14 14 12 12 13 12 10 10 9 9 9 10 9 10 11 12 14 12 7 8 8 7 7 7 9 10 10 10 10 11 7
13 13 13 14 14 14 14 15 16 15 15 15 15 14 12 13 12 10 9 9 9 9 9 9 9 8 8 10 11 13 13 11 8 8 7 6 8 9 9 8 9 10 8
13 13 14 16 15 14 14 16 17 15 15 15 14 13 13 11 10 10 10 8 8 8 8 7 8 7 6 7 12 12 13 13 9 7 8 8 7 6 6 8 9 9 8
14 13 15 16 17 16 15 15 16 15 15 14 13 12 11 10 9 8 7 7 7 8 8 8 8 7 6 6 6 5 6 8 9 7 6 7 6 5 5 5 6 7 7
12 13 15 17 18 18 17 16 16 14 14 14 12 11 10 9 8 7 6 7 7 7 8 7 7 7 7 7 9 6 6 6 7 6 4 4 3 4 4 4 4 5 6
14 15 16 17 18 18 17 16 15 14 14 12 11 8 8 7 6 6 6 8 9 10 12 11 8 7 8 7 8 10 9 9 10 6 4 5 5 6 5 5 4 5 7
Wind_Direction
52 44 40 41 45 42 41 40 11 5 20 11 346 334 249 250 252 242 228 222 218 210 194 193 190 185 180 181 181 167 165 195 191 339 322 319 303 285 260 267 260 262 261
41 40 42 40 37 35 30 38 22 16 11 354 13 259 258 257 247 246 234 227 218 213 207 197 194 186 175 171 175 159 154 178 156 143 61 341 343 345 348 324 285 285 284
40 29 31 34 35 39 32 34 34 27 15 5 15 352 6 344 297 276 263 257 239 224 213 207 200 187 176 184 187 171 165 177 197 185 163 166 242 308 321 328 329 323 303
35 34 31 30 30 38 47 46 41 41 29 27 39 43 34 359 324 315 322 323 323 301 262 225 208 200 192 191 192 180 172 165 187 203 213 204 179 202 311 313 314 315 298
26 32 25 21 23 34 53 56 58 51 43 50 54 58 51 27 351 3 4 358 358 9 4 329 250 218 210 206 200 185 184 181 182 186 185 199 217 212 229 280 307 317 296
343 351 346 347 2 9 26 41 62 54 47 62 66 74 71 49 39 24 12 1 354 3 7 352 326 263 228 221 216 208 199 198 195 197 195 192 198 201 210 247 284 300 298
280 282 285 295 291 285 278 315 80 65 35 72 85 100 109 95 80 40 4 355 346 338 343 346 331 310 276 245 224 220 218 206 205 208 210 212 219 209 202 231 264 281 295
264 266 266 265 264 264 262 258 244 239 242 225 219 212 185 171 189 208 226 261 268 277 295 317 322 320 309 290 246 232 230 219 218 220 216 216 222 214 212 210 227 273 277
264 265 264 262 262 263 262 258 255 256 251 243 239 242 234 223 225 230 232 242 254 265 277 297 308 304 307 303 284 255 250 234 228 229 227 225 226 217 218 215 214 227 261
269 272 270 267 268 267 269 269 258 255 256 252 246 244 239 236 233 231 237 241 245 248 264 273 277 286 290 287 282 271 268 259 247 233 230 232 229 220 217 217 217 220 232
271 274 276 277 277 275 269 266 265 264 264 259 254 254 253 248 245 242 243 240 242 242 244 248 254 259 264 263 261 264 262 256 262 259 242 239 231 225 221 216 217 221 225
286 284 281 282 281 278 275 268 264 261 261 261 261 257 257 253 248 246 247 241 240 240 238 237 242 248 248 240 240 252 251 248 253 253 250 249 241 231 225 219 221 223 221
296 295 292 290 284 280 278 273 267 262 262 260 258 260 259 255 250 248 247 240 237 240 240 233 236 242 243 241 236 237 246 245 248 245 242 247 244 242 234 226 226 225 224
293 294 292 289 286 284 281 279 277 272 269 265 261 260 259 256 253 251 247 243 238 236 238 235 234 236 239 240 240 237 240 244 245 243 239 240 238 242 240 234 229 223 222
294 291 287 286 286 287 285 282 279 279 276 273 269 264 262 259 257 255 252 247 241 239 235 235 237 236 233 236 233 233 237 237 244 249 248 247 247 244 239 234 227 218 218
292 289 288 288 287 286 285 285 282 280 279 275 273 272 270 266 261 256 253 250 246 242 234 232 235 236 236 230 225 221 228 234 242 251 257 259 257 257 250 238 228 218 216
290 290 291 288 287 287 286 284 282 281 280 277 276 273 270 268 265 263 257 250 248 242 236 235 233 235 236 234 233 231 226 231 237 242 249 259 256 249 254 249 236 226 223
292 294 293 292 290 289 289 286 287 283 281 280 278 275 271 268 267 262 256 250 247 243 240 238 234 233 238 235 234 236 231 231 236 238 239 243 254 253 245 250 246 238 231
291 291 292 294 293 294 293 293 293 289 286 284 281 278 273 270 266 261 257 252 247 246 241 238 232 230 238 236 235 233 226 232 240 241 236 235 246 250 240 239 244 244 239
299 299 299 300 300 299 298 298 296 294 292 290 286 281 274 269 266 260 257 254 248 247 245 242 234 229 235 236 232 226 218 231 241 242 238 234 237 245 239 234 234 236 233
299 300 302 304 302 302 302 300 299 296 295 294 290 284 277 272 267 261 254 250 248 247 244 243 240 231 231 237 235 225 211 221 232 237 239 236 231 240 239 232 233 231 218
304 305 307 306 305 304 304 303 300 299 298 296 292 288 282 278 277 262 253 246 243 243 243 242 243 238 233 231 234 228 219 213 219 227 231 229 231 239 238 231 230 223 207
306 308 309 310 310 309 308 306 305 305 304 301 297 292 289 282 273 264 257 249 240 239 239 234 236 239 232 232 231 232 228 217 213 224 223 221 227 234 239 231 226 210 201
311 312 314 316 317 317 314 309 309 309 307 304 302 296 291 287 276 264 255 246 239 235 231 229 230 232 228 228 226 225 224 216 211 214 214 212 213 220 230 223 216 207 197
313 314 317 319 319 319 317 316 315 314 310 306 302 299 291 287 283 269 254 247 239 228 223 225 220 219 226 226 212 204 205 198 194 182 187 194 200 211 216 209 207 194 182
317 320 321 321 320 320 319 319 319 317 313 310 307 302 298 293 285 277 272 249 241 235 227 226 221 222 224 223 218 213 208 192 173 169 192 202 206 209 208 198 191 184 173
Height
1496 1496 1496 1496 1496 1497 1497 1496 1497 1494 1493 1492 1491 1490 1490 1492 1495 1497 1499 1501 1503 1505 1506 1506 1507 1506 1506 1506 1506 1507 1507 1508 1508 1508 1507 1506 1505 1505 1506 1507 1508 1509 1510
1497 1497 1497 1496 1497 1497 1497 1495 1494 1491 1490 1490 1489 1490 1490 1492 1494 1495 1497 1498 1500 1501 1502 1503 1503 1503 1503 1503 1503 1504 1505 1505 1505 1505 1504 1503 1504 1503 1504 1504 1505 1505 1506
1500 1499 1498 1498 1498 1497 1497 1495 1494 1493 1492 1490 1490 1490 1490 1491 1492 1493 1493 1495 1497 1498 1499 1500 1501 1501 1501 1501 1501 1502 1502 1502 1503 1503 1503 1502 1501 1501 1502 1502 1502 1502 1503
1502 1502 1501 1500 1499 1498 1497 1497 1496 1495 1493 1491 1490 1490 1489 1489 1490 1489 1490 1492 1493 1494 1495 1497 1497 1498 1498 1498 1499 1499 1500 1500 1500 1500 1500 1501 1500 1500 1499 1500 1500 1500 1499
1505 1504 1503 1502 1501 1499 1498 1498 1497 1495 1494 1492 1492 1490 1489 1488 1488 1488 1488 1489 1489 1490 1491 1492 1493 1493 1494 1494 1495 1495 1496 1497 1497 1497 1497 1497 1497 1497 1497 1496 1496 1496 1496
1507 1506 1505 1503 1502 1501 1499 1498 1497 1495 1493 1492 1491 1490 1489 1487 1486 1485 1485 1485 1485 1486 1486 1487 1488 1488 1489 1489 1490 1492 1492 1493 1494 1494 1494 1494 1494 1494 1494 1494 1493 1492 1493
1508 1507 1506 1504 1503 1501 1499 1498 1496 1494 1493 1491 1489 1488 1486 1485 1483 1482 1482 1481 1481 1481 1481 1481 1482 1482 1483 1484 1485 1487 1488 1489 1489 1490 1490 1490 1491 1491 1491 1491 1491 1490 1489
1508 1507 1506 1504 1502 1500 1499 1497 1495 1493 1491 1490 1488 1486 1484 1482 1481 1479 1478 1477 1476 1476 1475 1475 1475 1476 1477 1477 1478 1480 1482 1483 1484 1485 1486 1486 1487 1487 1488 1488 1488 1488 1487
1508 1506 1504 1503 1501 1499 1497 1495 1493 1491 1489 1487 1485 1483 1481 1480 1478 1476 1475 1473 1472 1471 1470 1470 1469 1470 1470 1471 1472 1473 1475 1476 1478 1479 1480 1481 1482 1483 1483 1484 1485 1486 1485
1506 1504 1503 1501 1498 1496 1494 1492 1490 1488 1486 1483 1481 1479 1478 1476 1474 1472 1471 1470 1469 1467 1466 1465 1464 1464 1464 1465 1465 1466 1467 1469 1471 1472 1473 1475 1477 1478 1479 1480 1481 1481 1482
1504 1502 1500 1498 1495 1493 1491 1488 1486 1483 1481 1479 1477 1474 1472 1471 1469 1468 1466 1465 1464 1463 1461 1461 1460 1459 1459 1459 1459 1460 1461 1462 1464 1465 1467 1468 1470 1472 1473 1475 1475 1476 1477
1501 1499 1496 1494 1491 1489 1486 1484 1481 1478 1476 1474 1471 1469 1467 1465 1463 1461 1460 1459 1458 1458 1457 1456 1455 1454 1454 1453 1453 1454 1454 1456 1457 1458 1460 1461 1463 1465 1467 1469 1470 1471 1472
1498 1496 1493 1490 1487 1484 1481 1478 1476 1473 1470 1467 1464 1462 1459 1457 1455 1454 1453 1452 1451 1451 1451 1450 1449 1449 1449 1448 1448 1448 1448 1449 1450 1452 1453 1455 1456 1458 1460 1462 1464 1466 1467
1495 1492 1489 1486 1483 1480 1476 1473 1469 1466 1463 1460 1456 1453 1451 1449 1447 1446 1445 1444 1443 1443 1443 1443 1443 1443 1442 1443 1443 1443 1443 1443 1444 1445 1447 1448 1449 1451 1453 1455 1457 1459 1461
1492 1489 1485 1481 1478 1474 1470 1466 1462 1459 1455 1451 1448 1445 1442 1440 1438 1437 1436 1435 1434 1434 1435 1435 1435 1436 1436 1436 1437 1437 1437 1438 1438 1439 1440 1441 1443 1444 1446 1448 1451 1453 1454
1488 1484 1480 1476 1471 1467 1462 1458 1454 1450 1446 1442 1438 1435 1433 1430 1428 1427 1426 1425 1425 1425 1426 1426 1427 1428 1428 1429 1430 1431 1431 1432 1432 1433 1433 1435 1436 1438 1439 1441 1443 1446 1447
1483 1479 1474 1470 1465 1460 1455 1450 1445 1441 1437 1433 1429 1426 1423 1421 1419 1418 1416 1416 1416 1416 1416 1417 1418 1419 1421 1422 1423 1424 1425 1425 1426 1426 1427 1428 1429 1431 1432 1434 1436 1438 1440
1478 1473 1468 1462 1457 1452 1447 1441 1436 1432 1427 1423 1419 1416 1413 1411 1409 1407 1406 1406 1407 1407 1407 1408 1410 1411 1412 1414 1416 1417 1417 1418 1418 1419 1420 1421 1422 1424 1426 1427 1428 1430 1432
1473 1467 1462 1456 1450 1444 1439 1433 1427 1422 1418 1413 1409 1406 1403 1400 1398 1397 1396 1396 1396 1397 1398 1399 1401 1402 1404 1406 1408 1409 1410 1410 1411 1413 1414 1415 1416 1417 1419 1420 1421 1423 1425
1468 1461 1455 1449 1443 1437 1431 1424 1418 1413 1408 1404 1400 1396 1393 1390 1388 1387 1386 1386 1387 1387 1389 1390 1392 1394 1396 1398 1400 1402 1403 1403 1405 1406 1407 1408 1409 1410 1411 1413 1414 1416 1418
1462 1456 1449 1442 1436 1429 1423 1417 1411 1405 1400 1395 1391 1387 1383 1381 1378 1377 1376 1377 1377 1378 1379 1381 1383 1385 1388 1391 1393 1395 1396 1397 1398 1399 1400 1401 1403 1404 1405 1406 1408 1410 1413
1455 1449 1442 1435 1429 1423 1416 1409 1403 1397 1392 1386 1382 1378 1374 1371 1369 1368 1367 1368 1368 1369 1371 1373 1375 1377 1380 1383 1385 1387 1389 1390 1392 1393 1394 1395 1396 1397 1399 1400 1401 1404 1407
1450 1443 1436 1428 1422 1416 1410 1402 1395 1390 1384 1379 1374 1370 1366 1363 1361 1360 1359 1359 1360 1361 1363 1365 1367 1369 1372 1375 1378 1380 1382 1384 1385 1387 1388 1390 1390 1391 1392 1394 1396 1398 1401
1444 1437 1430 1422 1415 1409 1403 1397 1390 1383 1377 1372 1367 1363 1359 1356 1354 1353 1352 1352 1353 1354 1356 1358 1360 1362 1365 1368 1371 1373 1376 1378 1379 1381 1383 1384 1385 1386 1387 1388 1390 1392 1395
1439 1432 1425 1418 1410 1404 1397 1391 1384 1378 1372 1366 1361 1357 1354 1351 1349 1347 1347 1346 1347 1348 1350 1352 1354 1356 1359 1362 1365 1368 1370 1372 1374 1376 1377 1379 1380 1381 1382 1383 1385 1387 1391
1434 1427 1420 1414 1406 1399 1392 1386 1380 1373 1367 1361 1356 1352 1349 1346 1344 1343 1342 1342 1342 1343 1345 1347 1349 1352 1355 1358 1360 1363 1366 1368 1370 1371 1373 1374 1375 1376 1377 1379 1381 1384 1387